星链-31181 (STARLINK-31181 )

导读 | 星芒AI

STARLINK-31181 是 SpaceX Starlink 卫星互联网项目中的一颗低轨道卫星。它属于 Starlink 群体的一部分,旨在为全球用户提供高速互联网服务。该卫星采用可重复使用的设计,搭载先进通信设备,支持宽带数据传输。其部署有助于扩大 Starlink 在偏远和网络覆盖不足地区的服务范围。该卫星由猎鹰9号火箭发射入轨,运行在约 550 公里的高度,是 SpaceX 扩展全球卫星互联网基础设施的重要一环。

基本信息
目录编号:
58746
目录名称:
STARLINK-31181
国际标识:
2024-005U
轨道中心:
EARTH
卫星名称:
星链-31181
卫星全名:
星链-31181 (STARLINK-31181 )
卫星状态:
在轨 (已飞行712 天)
发射日期:
2024-01-07 UTC
国别 :
美国 (US)
星等 :
--
轨道信息
数据来源 国际轨道数据
星历时间: 2025-12-19T05:10:38+0800
1天前
查看轨道信息
半长轴: 6861.036km
偏心率: 0.0001854
轨道倾角: 43.002°
近地点辐角 262.519°
升交点赤经 163.872°
平近点角 97.545°
近地点: 481.628km
远地点: 484.174km
周期: 94.264分钟
每日圈数: 15.276302
详细信息
固有亮度:
5
最大亮度:
0.3
卫星平台:
Starlink v2.0 mini
覆盖范围:
全球
运营商:
太空探索技术公司
运营商所在国:
美国
制造商(研发单位):
太空探索技术公司
制造商所在国:
美国
使用方式:
暂无
卫星简介
星链(Starlink)计划是由太空探索技术公司(SpaceX)提出的一个巨型低轨卫星互联网星座项目,计划在2019年至2024年间在太空搭建由约1.2万颗卫星组成的“星链”网络,其中1584颗将部署在地球上空550千米处的近地轨道,并从2020年开始工作。该卫星仍在工作。
2D轨道图
3D轨道图
轨道高度分析图
轨道倾角分析图
轨道综合分析图
查看轨道综合分析图